Find Starlink 36681

NORAD ID: 68720 Int'l Des: 2026-081 Owner: SPXS Country: US Constellation: starlink operational
LEOCIRCULAR

現在のビュー

3D地球を読み込み中...

Starlink 36681について

説明を読み込み中...

次回通過

Passes for default location (London). Set your location on the main map for personalized predictions.

高度履歴

Loading altitude history...

軌道要素

1 68720U 26081X 26151.16668980 .00038015 00000-0 11319-2 0 9993
2 68720 53.1598 10.6359 0001082 71.8793 353.7916 15.34363617 6016
Epoch: May 31, 2026 • Age: 8 hours

現在のステータス

高度 468.2 km
速度 7.64 km/s
衛星直下点 51.08°N, 53°E
打ち上げ日 Apr 14, 2026
運用期間 0.1 years
タイプ internet

技術仕様

分類 Payload
質量 575.00 kg
乾燥質量 530.00 kg
総質量 575.00 kg
長さ 0.30 m
直径 4.10 m
スパン 29.00 m
形状 Box + pan
製造者 SPXS
バスタイプ Starlink V2MO
フェーズステータス In Orbit
所有者/国 SPXS/US

Most Searched